Regional Weather Roundup
Issued by NWS

Home | Current Version | Previous Version | Graphics & Text | Print | Product List | Glossary On
Versions: 1 2 3 4 5 6 7 8 9 10 11 12 13 14 15 16 17 18 19 20 21 22 23 24 25 26 27
000
ASUS45 KTFX 270710
RWRMT
MONTANA REGIONAL WEATHER ROUNDUP
NATIONAL WEATHER SERVICE GREAT FALLS MT
100 AM MDT FRI MAY 27 2016

NOTE: "FAIR" INDICATES FEW OR NO CLOUDS BELOW 12000 FEET WITH NO
SIGNIFICANT WEATHER AND/OR OBSTRUCTIONS TO VISIBILITY.

MTZ001>007-043-270800-
WEST OF THE DIVIDE

CITY           SKY/WX    TMP DP  RH WIND       PRES   REMARKS
KALISPELL      MOCLDY    48  48 100 SW5       29.91R
MISSOULA       MOCLDY    50  47  89 CALM      29.95S
BUTTE          CLEAR     45  41  86 VRB3      29.98S
MULLAN PASS    PTCLDY    39  37  92 SW5       29.98F
ANACONDA         N/A     46  43  87 CALM      29.96F
DEER LODGE       N/A     48  45  87 W5        29.97F
EUREKA           N/A     55  41  58 S5        29.89F
HAMILTON         N/A     54  43  66 E5        29.94S
LIBBY            N/A     48  43  81 CALM      29.90F
$$

MTZ008-052>055-270800-
SOUTHWEST MONTANA

CITY           SKY/WX    TMP DP  RH WIND       PRES   REMARKS
BOZEMAN        CLOUDY    47  43  86 E6        29.95S
DILLON         MOCLDY    46  39  76 SE7       29.95S
W YELLOWSTONE  PTCLDY    36  36 100 CALM      30.03S
ENNIS          CLEAR     43  39  87 CALM      30.02S
$$

MTZ009-010-012-014-046-048-049-054-270800-
EAST SLOPES AND CENTRAL MONTANA

CITY           SKY/WX    TMP DP  RH WIND       PRES   REMARKS
CUT BANK       CLEAR     46  44  93 S3        29.88F
GREAT FALLS    CLEAR     43  41  93 SW7       29.90F
MALMSTROM AFB  MOCLDY    45  43  93 S9        29.90F
HELENA         MOCLDY    52  46  80 CALM      29.92S
CHOTEAU          N/A     48  45  87 SW5       29.91F
$$

MTZ011-013-016-021-045-047-050-051-270800-
NORTH CENTRAL MONTANA

CITY           SKY/WX    TMP DP  RH WIND       PRES   REMARKS
HAVRE          CLOUDY    53  49  86 NE7       29.88F
LEWISTOWN      CLEAR     44  39  82 E3        29.92F
N BAR RANCH      N/A     41  39  93 W5        29.95S
CHINOOK          N/A     52  48  87 CALM      29.90F
$$

MTZ017>020-022>027-061-062-270800-
NORTHEAST MONTANA

CITY           SKY/WX    TMP DP  RH WIND       PRES   REMARKS
GLASGOW        PTCLDY    51  48  89 NE8       29.87S
JORDAN           N/A     51  50  96 N7        29.85F
SIDNEY         CLEAR     52  48  87 N9        29.85S
WOLF POINT     CLOUDY    54  49  83 NE7       29.87S
$$

MTZ028>42-056>058-270800-
SOUTHCENTRAL AND SOUTHEAST MONTANA

CITY           SKY/WX    TMP DP  RH WIND       PRES   REMARKS
BAKER          CLEAR     45  42  89 W3        29.86F
BILLINGS       CLEAR     52  44  74 SW5       29.92S
LIVINGSTON     CLOUDY    41  38  89 N9        29.94F
MILES CITY     CLEAR     50  46  86 W8        29.86S
FORSYTH          N/A     52  48  87 SW5       29.87S
$$

REGIONAL REPORTS...DAKOTAS

CITY           SKY/WX    TMP DP  RH WIND       PRES   REMARKS
WILLISTON      PTCLDY    51  48  89 N9        29.86F
MINOT          CLOUDY    57  53  86 NW9       29.82F
DICKINSON      CLEAR     46  41  82 CALM      29.82F
BEACH            N/A     43  43 100 S3        29.86F
CROSBY         CLOUDY    48  48 100 NW6       29.90F
WATFORD CITY     N/A     41  41 100 N6        29.85F FOG
BISMARCK       PTCLDY    48  47  96 CALM      29.84R
GRAND FORKS    MOCLDY    55  53  93 S5        29.78S
FARGO          MOCLDY    58  56  93 VRB3      29.81R
BUFFALO SD       N/A     46  41  82 S6        29.81S
RAPID CITY     CLEAR     50  42  74 NW13      29.87S
$$

REGIONAL REPORTS...WYOMING/IDAHO/WASHINGTON

CITY           SKY/WX    TMP DP  RH WIND       PRES   REMARKS
GILLETTE       CLOUDY    43  41  93 SW5       29.92F
SHERIDAN       MOCLDY    48  43  82 VRB3      29.92S
BUFFALO WY     CLOUDY    46  40  79 W5        29.95S
CODY           CLEAR     45  37  76 CALM      29.94F
YELLOWSTONE LA   N/A     31  29  92 CALM      30.09S
IDAHO FALLS    CLEAR     46  41  82 CALM      29.94R
SALMON         CLOUDY    57  37  47 CALM      29.92R
BOISE          PTCLDY    57  39  51 S8        29.90S
SPOKANE        MOCLDY    52  39  61 S15       29.90S
$$

REGIONAL REPORTS...ALBERTA

CITY           SKY/WX    TMP DP  RH WIND       PRES   REMARKS
EDMONTON       PTCLDY    52  48  87 W8        29.79F
CALGARY        MOCLDY    52  45  76 N8        29.79F
LETHBRIDGE     CLOUDY    54  45  71 SW7       29.82S
MEDICINE HAT   MOCLDY    55  48  76 S5        29.85F
WATERTON GATE    N/A     48  37  66 SW12        N/A
MILK RIVER       N/A     45  41  87 E2          N/A
$$

REGIONAL REPORTS...SASKATCHEWAN

CITY           SKY/WX    TMP DP  RH WIND       PRES   REMARKS
SWIFT CURRENT  CLEAR     48  46  93 S7        29.89F
REGINA         MOCLDY    54  52  94 W9        29.88R
SASKATOON      PTCLDY    57  50  77 CALM      29.89R
CYPRESS HILLS    N/A     45  39  81 S5          N/A
VAL MARIE        N/A     41  39  93 E3          N/A
ROCKGLEN         N/A     48  46  93 N6          N/A
$$




USA.gov is the U.S. government's official web portal to all federal, state and local government web resources and services.